Regional Weather Roundup
Issued by NWS

Home | Current Version | Previous Version | Text Only | Print | Product List | Glossary Off
Versions: 1 2 3 4 5 6 7 8 9 10 11 12 13 14 15 16 17 18 19 20 21 22 23 24 25 26 27

000
ASUS45 KCYS 280510
RWRWY

WYOMING REGIONAL WEATHER ROUNDUP
NATIONAL WEATHER SERVICE CHEYENNE WY
1100 PM MDT WED JUL 27 2016

NOTE:  "FAIR" INDICATES FEW OR NO CLOUDS BELOW 12,000 FEET
WITH NO SIGNIFICANT WEATHER AND/OR OBSTRUCTIONS TO VISIBILITY.

WYZ001-280600-
YELLOWSTONE NATIONAL PARK

CITY           SKY/WX    TMP DP  RH WIND       PRES   REMARKS
LK YELLOWSTONE   N/A     49  44  83 NW6       30.38S
W YELLOWSTONE  NOT AVBL

$$
WYZ002>013-054>058-071-098>099-280600-
NORTHERN WYOMING

CITY           SKY/WX    TMP DP  RH WIND       PRES   REMARKS
JACKSON        FAIR      57  34  41 NE3       30.23S
CODY           FAIR      68  50  52 NW9       30.22R
GREYBULL       FAIR      79  51  37 NW6       30.07R
WORLAND        FAIR      72  52  49 SE8       30.10R
SHERIDAN       CLOUDY    70  54  56 NE21G29   30.17R THUNDER
BUFFALO        LGT RAIN  69  57  65 W16       30.24R
GILLETTE       MOCLDY    69  56  62 SE14      30.17R
HULETT         MOCLDY    70  50  49 CALM      30.20S
NEWCASTLE      FAIR      68  50  52 CALM      30.18F

$$
WYZ014>020-022>026-101>103-280600-
CENTRAL WYOMING

CITY           SKY/WX    TMP DP  RH WIND       PRES   REMARKS
BIG PINEY      FAIR      56  31  38 W8        30.30S
PINEDALE       FAIR      55  34  44 NW5       30.31F
DUBOIS         FAIR      63  27  25 CALM      30.30F
LANDER         FAIR      72  39  30 W12       30.18R
RIVERTON       FAIR      74  35  24 NE5       30.19R
CASPER         FAIR      69  53  56 E18G26    30.16S
DOUGLAS          N/A    N/A N/A N/A MISG      30.20F

$$
WYZ021-027>030-104>119-280600-
SOUTHERN WYOMING

CITY           SKY/WX    TMP DP  RH WIND       PRES   REMARKS
EVANSTON       FAIR      69  24  18 SE3       30.31S
KEMMERER         N/A    N/A N/A N/A N5        30.33S
FORT BRIDGER   FAIR      75  21  13 N3        30.33S
ROCK SPRINGS   FAIR      72  21  14 W8        30.26S
DIXON          FAIR      64  31  28 CALM      30.27R
RAWLINS        FAIR      60  29  30 CALM      30.23F
SARATOGA       FAIR      61  30  31 S18       30.26F
LARAMIE        FAIR      62  49  62 SE9       30.32S
CHEYENNE       FAIR      64  57  78 SE7       30.30R
TORRINGTON     FAIR      66  61  84 E12       30.17R
PINE BLUFFS    FAIR      61  55  82 CALM      30.25R

$$




USA.gov is the U.S. government's official web portal to all federal, state and local government web resources and services.